User: anonymous   Login
Location: Unspecified
(0.0000°N, 0.0000°E)
Time: 01:58:45
(UTC+00:00)
Language:

FAST 1 (USA 222) - Orbit

View from above orbital plane
View from above orbital plane
View from above satellite
View from above satellite

Ground track
Ground track

The orbit data is extracted from the following two-line orbital elements,

1 37227U 10062F   24109.41137054  .00003230  00000-0  41366-3 0  9992
2 37227  71.9666  97.7965 0014819 168.4846 191.6660 14.81945701248712
Epoch (UTC): 18 April 2024 09:52:22
Eccentricity: 0.0014819
inclination: 71.9666°
perigee height: 613 km
apogee height: 633 km
right ascension of ascending node: 97.7965°
argument of perigee: 168.4846°
revolutions per day: 14.81945701
mean anomaly at epoch: 191.6660°
orbit number at epoch: 24871

The dashed part of the orbit path shows where the satellite is in the earth's shadow,  

DLR